GW4984 Weather Reports


time (UTC)temp
F
wind
direction
speed
knots
gust
knots
rain 1hr
in
rain 24hr
in
rain mn
in
humidity
%
barometer
mb
20260906193419 104 317 1.7 1.7 0.00 0.00 0.00 34 1013.3
20260906192914 104 328 0.9 0.9 0.00 0.00 0.00 35 1013.3
20260906192414 105 335 1.7 3.5 0.00 0.00 0.00 36 1013.5
20260906191913 106 194 3.5 5.2 0.00 0.00 0.00 34 1013.5
20260906191409 103 323 0.9 0.9 0.00 0.00 0.00 35 1013.5
20260906190907 104 180 2.6 2.6 0.00 0.00 0.00 35 1013.7
20260906190406 104 136 1.7 2.6 0.00 0.00 0.00 33 1013.6
20260906185901 103 3 0.0 0.0 0.00 0.00 0.00 36 1013.7
20260906185400 103 343 0.9 0.9 0.00 0.00 0.00 34 1013.8
20260906184900 102 351 1.7 2.6 0.00 0.00 0.00 37 1013.8
20260906184355 104 306 1.7 3.5 0.00 0.00 0.00 36 1013.8
20260906183851 104 311 0.9 1.7 0.00 0.00 0.00 35 1013.9
20260906183348 105 151 1.7 2.6 0.00 0.00 0.00 34 1014.0
20260906182841 104 334 0.9 1.7 0.00 0.00 0.00 37 1014.1
20260906182338 104 24 1.7 1.7 0.00 0.00 0.00 37 1014.3
20260906181837 103 359 0.0 0.0 0.00 0.00 0.00 37 1014.3
20260906181335 102 3 0.9 1.7 0.00 0.00 0.00 38 1014.5
20260906180835 103 322 0.9 1.7 0.00 0.00 0.00 39 1014.7
20260906180330 103 289 1.7 1.7 0.00 0.00 0.00 38 1014.6
20260906175827 104 350 0.9 1.7 0.00 0.00 0.00 37 1014.9
20260906175322 102 5 0.0 0.0 0.00 0.00 0.00 38 1014.8
20260906174821 102 269 1.7 1.7 0.00 0.00 0.00 37 1014.9
20260906174315 103 292 0.9 2.6 0.00 0.00 0.00 37 1015.0
20260906173810 103 217 2.6 2.6 0.00 0.00 0.00 37 1015.2
20260906173307 102 13 0.9 0.9 0.00 0.00 0.00 39 1015.2
20260906172805 101 267 1.7 1.7 0.00 0.00 0.00 39 1015.5
20260906172301 101 325 1.7 2.6 0.00 0.00 0.00 38 1015.3
20260906171756 102 25 0.0 0.0 0.00 0.00 0.00 39 1015.5
20260906171251 102 35 0.9 0.9 0.00 0.00 0.00 40 1015.5
20260906170747 101 66 0.9 0.9 0.00 0.00 0.00 40 1015.5
20260906170243 101 70 0.9 1.7 0.00 0.00 0.00 40 1015.7
20260906165738 100 5 0.0 0.0 0.00 0.00 0.00 41 1015.8
20260906165238 101 158 2.6 2.6 0.00 0.00 0.00 39 1015.8
20260906164737 101 294 1.7 1.7 0.00 0.00 0.00 40 1016.0
20260906164232 100 63 0.0 0.0 0.00 0.00 0.00 41 1016.0
20260906163728 101 75 0.0 0.0 0.00 0.00 0.00 39 1016.0
20260906163225 99 53 0.0 0.0 0.00 0.00 0.00 41 1016.0
20260906162721 100 77 0.0 0.0 0.00 0.00 0.00 40 1015.9
20260906162216 98 76 0.0 0.0 0.00 0.00 0.00 43 1016.0
20260906161711 97 133 0.9 0.9 0.00 0.00 0.00 45 1016.1
20260906161210 97 164 0.9 1.7 0.00 0.00 0.00 45 1015.8
20260906160709 96 34 0.0 0.0 0.00 0.00 0.00 48 1015.9
20260906160208 95 339 1.7 1.7 0.00 0.00 0.00 47 1016.2
20260906155706 95 23 0.0 0.0 0.00 0.00 0.00 49 1016.1
20260906155201 95 25 0.0 0.0 0.00 0.00 0.00 49 1016.0
20260906154656 95 23 0.0 0.0 0.00 0.00 0.00 50 1015.9
20260906154150 95 31 0.0 0.0 0.00 0.00 0.00 49 1016.0
20260906153649 95 152 0.0 0.9 0.00 0.00 0.00 48 1015.9
20260906153144 95 107 0.0 0.0 0.00 0.00 0.00 49 1015.9
20260906152639 95 330 1.7 2.6 0.00 0.00 0.00 49 1015.8
20260906152138 93 30 0.0 0.0 0.00 0.00 0.00 52 1015.9
20260906151633 92 6 0.9 0.9 0.00 0.00 0.00 54 1015.7
20260906151129 91 7 0.0 0.0 0.00 0.00 0.00 56 1015.8
20260906150624 91 338 1.7 2.6 0.00 0.00 0.00 55 1015.7
20260906150120 89 332 1.7 2.6 0.00 0.00 0.00 56 1015.6
20260906145618 89 17 0.0 0.0 0.00 0.00 0.00 58 1015.7
20260906145113 89 29 0.0 0.0 0.00 0.00 0.00 58 1015.9
20260906144608 88 14 0.0 0.0 0.00 0.00 0.00 59 1015.8
20260906144103 88 15 0.0 0.9 0.00 0.00 0.00 59 1015.7
20260906143557 87 351 1.7 1.7 0.00 0.00 0.00 60 1015.7
20260906143054 87 329 1.7 1.7 0.00 0.00 0.00 59 1015.6
20260906142553 87 16 0.0 0.0 0.00 0.00 0.00 62 1015.6
20260906142049 87 16 0.0 0.0 0.00 0.00 0.00 61 1015.6
20260906141548 86 8 0.0 0.0 0.00 0.00 0.00 61 1015.8
20260906141044 86 26 0.0 0.0 0.00 0.00 0.00 63 1015.7
20260906140543 86 12 0.0 0.0 0.00 0.00 0.00 64 1015.6
20260906140043 85 4 0.0 0.0 0.00 0.00 0.00 64 1015.5
20260906135540 84 348 0.9 0.9 0.00 0.00 0.00 64 1015.4
20260906135036 84 351 0.9 1.7 0.00 0.00 0.00 65 1015.2
20260906134531 84 359 0.9 0.9 0.00 0.00 0.00 66 1015.4
20260906134026 83 4 0.9 0.9 0.00 0.00 0.00 67 1015.5
20260906133522 83 350 0.9 0.9 0.00 0.00 0.00 67 1015.3
20260906133017 83 294 1.7 1.7 0.00 0.00 0.00 66 1015.2
20260906132513 83 3 0.0 0.0 0.00 0.00 0.00 67 1015.5
20260906132008 82 106 0.9 0.9 0.00 0.00 0.00 67 1015.3
20260906131503 82 241 0.9 1.7 0.00 0.00 0.00 67 1015.5
20260906130958 83 342 0.9 0.9 0.00 0.00 0.00 67 1015.3
20260906130457 82 8 0.9 0.9 0.00 0.00 0.00 67 1015.2
20260906125952 82 11 0.0 0.0 0.00 0.00 0.00 68 1015.3
20260906125450 82 10 0.0 0.0 0.00 0.00 0.00 69 1015.4
20260906124949 81 5 0.0 0.0 0.00 0.00 0.00 69 1015.0
20260906124444 81 7 0.0 0.0 0.00 0.00 0.00 70 1015.0
20260906123939 80 359 0.0 0.0 0.00 0.00 0.00 71 1014.9
20260906123439 80 4 0.0 0.0 0.00 0.00 0.00 72 1015.0
20260906122938 80 5 0.0 0.0 0.00 0.00 0.00 72 1014.8
20260906122433 79 355 0.0 0.0 0.00 0.00 0.00 73 1014.9
20260906121930 79 12 0.0 0.0 0.00 0.00 0.00 74 1014.8
20260906121426 79 12 0.0 0.0 0.00 0.00 0.00 74 1014.7
20260906120923 79 12 0.0 0.0 0.00 0.00 0.00 73 1014.7
20260906120418 79 12 0.0 0.0 0.00 0.00 0.00 72 1014.7
20260906115914 80 12 0.0 0.0 0.00 0.00 0.00 72 1014.4
20260906115409 80 12 0.0 0.0 0.00 0.00 0.00 71 1014.5
20260906114908 79 15 0.0 0.0 0.00 0.00 0.00 71 1014.4
20260906114403 80 15 0.0 0.0 0.00 0.00 0.00 71 1014.3
20260906113859 80 15 0.0 0.0 0.00 0.00 0.00 71 1014.2
20260906113358 80 22 0.0 0.0 0.00 0.00 0.00 70 1014.3
20260906112854 80 22 0.0 0.0 0.00 0.00 0.00 70 1014.4
20260906112350 80 23 0.0 0.0 0.00 0.00 0.00 70 1014.2
20260906111849 80 23 0.0 0.0 0.00 0.00 0.00 71 1014.2
20260906111349 80 23 0.0 0.0 0.00 0.00 0.00 71 1014.3
20260906110844 80 349 0.0 0.0 0.00 0.00 0.00 70 1014.2
20260906110340 81 348 0.0 0.0 0.00 0.00 0.00 69 1014.1
20260906105839 81 348 0.0 0.0 0.00 0.00 0.00 69 1014.0
20260906105335 81 348 0.0 0.0 0.00 0.00 0.00 69 1014.0
20260906104831 81 348 0.0 0.0 0.00 0.00 0.00 68 1013.9
20260906104329 81 348 0.0 0.0 0.00 0.00 0.00 69 1013.9
20260906103828 81 348 0.0 0.0 0.00 0.00 0.00 69 1014.0
20260906103326 81 349 0.0 0.0 0.00 0.00 0.00 69 1013.8
20260906102822 81 349 0.0 0.0 0.00 0.00 0.00 69 1014.0
20260906102321 81 349 0.0 0.0 0.00 0.00 0.00 69 1013.9
20260906101817 81 349 0.0 0.0 0.00 0.00 0.00 69 1014.1
20260906101312 81 349 0.0 0.0 0.00 0.00 0.00 68 1014.2
20260906100808 82 349 0.0 0.0 0.00 0.00 0.00 67 1014.0
20260906100306 82 349 0.0 0.0 0.00 0.00 0.00 67 1013.9
20260906095802 82 349 0.0 0.0 0.00 0.00 0.00 66 1014.0
20260906095257 82 349 0.0 0.0 0.00 0.00 0.00 66 1014.1
20260906094756 83 349 0.0 0.0 0.00 0.00 0.00 65 1014.2
20260906094251 83 349 0.0 0.0 0.00 0.00 0.00 65 1014.0
20260906093747 83 349 0.0 0.0 0.00 0.00 0.00 64 1013.9
20260906093243 83 349 0.0 0.0 0.00 0.00 0.00 64 1013.8
20260906092738 83 349 0.0 0.0 0.00 0.00 0.00 63 1013.9
20260906092238 83 351 0.0 0.9 0.00 0.00 0.00 64 1013.8
20260906091733 83 351 0.0 0.0 0.00 0.00 0.00 64 1013.8
20260906091229 84 351 0.0 0.0 0.00 0.00 0.00 63 1013.9
20260906090726 84 351 0.0 0.0 0.00 0.00 0.00 63 1013.8
20260906090225 84 351 0.0 0.0 0.00 0.00 0.00 62 1013.8
20260906085724 84 354 0.0 0.0 0.00 0.00 0.00 62 1013.6
20260906085223 84 354 0.0 0.0 0.00 0.00 0.00 62 1013.8
20260906084718 84 3 0.0 0.0 0.00 0.00 0.00 62 1013.7
20260906084218 84 347 0.9 0.9 0.00 0.00 0.00 62 1013.7
20260906083713 85 4 0.0 0.0 0.00 0.00 0.00 61 1013.6
20260906083203 84 258 0.9 1.7 0.00 0.00 0.00 61 1013.5
20260906082658 84 13 0.0 0.0 0.00 0.00 0.00 63 1013.4
20260906082153 84 3 0.0 0.0 0.00 0.00 0.00 62 1013.4
20260906081649 84 347 0.0 0.0 0.00 0.00 0.00 63 1013.4
20260906081144 84 346 0.0 0.0 0.00 0.00 0.00 62 1013.6
20260906080640 84 351 0.0 0.0 0.00 0.00 0.00 62 1013.5
20260906080136 84 353 0.0 0.0 0.00 0.00 0.00 63 1013.4
20260906075636 84 353 0.0 0.0 0.00 0.00 0.00 63 1013.6
20260906075130 84 353 0.0 0.0 0.00 0.00 0.00 63 1013.4
20260906074626 83 353 0.0 0.0 0.00 0.00 0.00 64 1013.4
20260906074124 83 354 0.0 0.0 0.00 0.00 0.00 64 1013.4
20260906073619 84 354 0.0 0.0 0.00 0.00 0.00 64 1013.3
20260906073115 84 354 0.0 0.0 0.00 0.00 0.00 64 1013.5
20260906072610 84 354 0.0 0.0 0.00 0.00 0.00 63 1013.4
20260906072107 84 353 0.0 0.0 0.00 0.00 0.00 62 1013.5
20260906071603 84 354 0.0 0.0 0.00 0.00 0.00 63 1013.4
20260906071102 84 354 0.0 0.0 0.00 0.00 0.00 62 1013.7
20260906070559 84 354 0.0 0.0 0.00 0.00 0.00 62 1013.7
20260906070054 84 354 0.0 0.0 0.00 0.00 0.00 63 1013.7
20260906065554 84 354 0.0 0.0 0.00 0.00 0.00 63 1013.6
20260906065050 84 354 0.0 0.0 0.00 0.00 0.00 64 1013.4
20260906064545 84 354 0.0 0.0 0.00 0.00 0.00 63 1013.5
20260906064040 84 354 0.0 0.0 0.00 0.00 0.00 63 1013.5
20260906063536 84 354 0.0 0.0 0.00 0.00 0.00 63 1013.6
20260906063032 84 354 0.0 0.0 0.00 0.00 0.00 63 1013.6
20260906062527 84 354 0.0 0.0 0.00 0.00 0.00 63 1013.8
20260906062021 84 354 0.0 0.0 0.00 0.00 0.00 62 1013.7
20260906061517 84 354 0.0 0.0 0.00 0.00 0.00 62 1013.8
20260906061016 85 354 0.0 0.0 0.00 0.00 0.00 61 1013.7
20260906060513 85 354 0.0 0.0 0.00 0.00 0.00 61 1013.7
20260906060010 85 354 0.0 0.0 0.00 0.00 0.00 61 1013.8
20260906055506 85 354 0.0 0.0 0.00 0.00 0.00 61 1013.7
20260906055001 85 354 0.0 0.0 0.00 0.00 0.00 60 1013.7
20260906054500 85 354 0.0 0.0 0.00 0.00 0.00 60 1013.7
20260906053956 86 354 0.0 0.0 0.00 0.00 0.00 60 1013.7
20260906053452 86 354 0.0 0.0 0.00 0.00 0.00 59 1013.7
20260906052948 86 354 0.0 0.0 0.00 0.00 0.00 59 1013.8
20260906052443 86 354 0.0 0.0 0.00 0.00 0.00 58 1013.5
20260906051940 86 354 0.0 0.0 0.00 0.00 0.00 58 1013.6
20260906051435 87 354 0.0 0.0 0.00 0.00 0.00 56 1013.5
20260906050931 87 342 0.0 0.0 0.00 0.00 0.00 56 1013.4
20260906050431 87 358 0.0 0.0 0.00 0.00 0.00 56 1013.4
20260906045930 87 358 0.0 0.0 0.00 0.00 0.00 56 1013.5
20260906045429 87 358 0.0 0.0 0.00 0.00 0.00 56 1013.3
20260906044926 87 358 0.0 0.0 0.00 0.00 0.00 56 1013.6
20260906044425 87 358 0.0 0.0 0.00 0.00 0.00 56 1013.5
20260906043921 87 358 0.0 0.0 0.00 0.00 0.00 55 1013.5
20260906043417 87 358 0.0 0.0 0.00 0.00 0.00 55 1013.7
20260906042913 87 358 0.0 0.0 0.00 0.00 0.00 55 1013.5
20260906042412 87 358 0.0 0.0 0.00 0.00 0.00 55 1013.4
20260906041907 87 358 0.0 0.0 0.00 0.00 0.00 54 1013.4
20260906041403 87 358 0.0 0.0 0.00 0.00 0.00 54 1013.6
20260906040902 87 358 0.0 0.0 0.00 0.00 0.00 55 1013.5
20260906040357 87 358 0.0 0.0 0.00 0.00 0.00 54 1013.5
20260906035853 87 358 0.0 0.0 0.00 0.00 0.00 55 1013.6
20260906035348 88 358 0.0 0.0 0.00 0.00 0.00 54 1013.7
20260906034843 88 358 0.0 0.0 0.00 0.00 0.00 54 1013.7
20260906034338 88 358 0.0 0.0 0.00 0.00 0.00 54 1013.6
20260906033834 88 358 0.0 0.0 0.00 0.00 0.00 54 1013.4
20260906033333 88 358 0.0 0.0 0.00 0.00 0.00 53 1013.5
20260906032830 89 358 0.0 0.0 0.00 0.00 0.00 53 1013.1
20260906032325 89 358 0.0 0.0 0.00 0.00 0.00 52 1013.3
20260906031821 89 358 0.0 0.0 0.00 0.00 0.00 52 1013.4
20260906031316 90 358 0.0 0.0 0.00 0.00 0.00 52 1013.4
20260906030816 89 4 0.0 0.0 0.00 0.00 0.00 50 1013.7
20260906030311 89 13 0.0 0.0 0.00 0.00 0.00 51 1013.3
20260906025810 89 13 0.0 0.0 0.00 0.00 0.00 51 1013.4
20260906025306 89 13 0.0 0.0 0.00 0.00 0.00 50 1013.4
20260906024804 90 13 0.0 0.0 0.00 0.00 0.00 51 1013.3
20260906024303 90 13 0.0 0.0 0.00 0.00 0.00 50 1013.3
20260906023759 90 13 0.0 0.0 0.00 0.00 0.00 49 1013.1
20260906023254 90 13 0.0 0.0 0.00 0.00 0.00 49 1013.1
20260906022749 90 13 0.0 0.0 0.00 0.00 0.00 49 1012.9
20260906022244 90 13 0.0 0.0 0.00 0.00 0.00 49 1013.0
20260906021741 90 13 0.0 0.0 0.00 0.00 0.00 49 1012.9
20260906021240 90 13 0.0 0.0 0.00 0.00 0.00 49 1012.7
20260906020735 91 13 0.0 0.0 0.00 0.00 0.00 48 1012.8
20260906020234 91 13 0.0 0.0 0.00 0.00 0.00 48 1012.7
20260906015729 91 13 0.0 0.0 0.00 0.00 0.00 48 1012.7
20260906015227 91 13 0.0 0.0 0.00 0.00 0.00 48 1012.8
20260906014722 91 13 0.0 0.0 0.00 0.00 0.00 47 1012.6
20260906014218 91 13 0.0 0.0 0.00 0.00 0.00 47 1012.6
20260906013714 91 13 0.0 0.0 0.00 0.00 0.00 47 1012.8
20260906013214 91 13 0.0 0.0 0.00 0.00 0.00 47 1012.6
20260906012709 92 13 0.0 0.0 0.00 0.00 0.00 46 1012.5
20260906012203 92 13 0.0 0.0 0.00 0.00 0.00 46 1012.5
20260906011659 92 13 0.0 0.0 0.00 0.00 0.00 46 1012.3
20260906011153 92 13 0.0 0.0 0.00 0.00 0.00 45 1012.5
20260906010649 92 13 0.0 0.0 0.00 0.00 0.00 45 1012.4
20260906010145 93 13 0.0 0.0 0.00 0.00 0.00 45 1012.2
20260906005644 93 18 0.0 0.0 0.00 0.00 0.00 44 1012.4
20260906005144 94 17 0.0 0.0 0.00 0.00 0.00 44 1012.5
20260906004643 94 17 0.0 0.0 0.00 0.00 0.00 43 1012.3
20260906004138 95 17 0.0 0.0 0.00 0.00 0.00 42 1012.1
20260906003633 95 17 0.0 0.0 0.00 0.00 0.00 42 1012.5
20260906003129 96 17 0.0 0.0 0.00 0.00 0.00 41 1012.2
20260906002619 96 17 0.0 0.0 0.00 0.00 0.00 40 1012.4
20260906002114 96 7 0.0 0.0 0.00 0.00 0.00 40 1012.3
20260906001609 96 2 0.0 0.0 0.00 0.00 0.00 40 1012.3
20260906001108 97 2 0.0 0.0 0.00 0.00 0.00 40 1012.2
20260906000604 98 2 0.0 0.0 0.00 0.00 0.00 39 1012.2
20260906000059 98 8 0.0 0.0 0.00 0.00 0.00 38 1012.1
20260905235558 98 55 0.9 0.9 0.00 0.00 0.00 37 1012.1
20260905235054 99 29 0.0 0.0 0.00 0.00 0.00 37 1012.3
20260905234549 99 30 0.0 0.0 0.00 0.00 0.00 36 1012.1
20260905234044 100 118 1.7 1.7 0.00 0.00 0.00 36 1012.1
20260905233538 100 36 0.9 0.9 0.00 0.00 0.00 36 1012.1
20260905233038 100 21 0.0 0.0 0.00 0.00 0.00 36 1011.9
20260905232533 100 140 1.7 1.7 0.00 0.00 0.00 36 1012.0
20260905232029 100 49 0.0 0.9 0.00 0.00 0.00 37 1012.0
20260905231524 100 13 0.0 0.9 0.00 0.00 0.00 35 1012.0
20260905231020 100 145 0.0 0.9 0.00 0.00 0.00 36 1011.9
20260905230520 101 8 0.9 0.9 0.00 0.00 0.00 36 1012.0
20260905230018 102 38 2.6 3.5 0.00 0.00 0.00 35 1012.0
20260905225513 102 354 0.0 0.0 0.00 0.00 0.00 36 1011.9
20260905225008 102 47 1.7 2.6 0.00 0.00 0.00 35 1011.9
20260905224503 101 12 0.9 0.9 0.00 0.00 0.00 36 1011.9
20260905224002 101 48 1.7 1.7 0.00 0.00 0.00 36 1012.0
20260905223500 101 209 2.6 2.6 0.00 0.00 0.00 37 1012.0
20260905222956 100 3 0.0 0.0 0.00 0.00 0.00 37 1011.9
20260905222455 100 57 0.9 1.7 0.00 0.00 0.00 38 1012.1
20260905221950 101 177 2.6 2.6 0.00 0.00 0.00 37 1012.1
20260905221447 101 97 0.0 0.9 0.00 0.00 0.00 37 1012.1
20260905220943 101 321 0.0 0.0 0.00 0.00 0.00 39 1012.1
20260905220439 101 352 0.0 0.0 0.00 0.00 0.00 37 1012.1
20260905215938 101 0 0.0 0.0 0.00 0.00 0.00 38 1012.1
20260905215433 102 151 0.9 1.7 0.00 0.00 0.00 37 1012.3
20260905214930 102 338 0.9 1.7 0.00 0.00 0.00 37 1012.2
20260905214425 102 330 0.0 0.9 0.00 0.00 0.00 37 1012.5
20260905213920 102 162 1.7 2.6 0.00 0.00 0.00 37 1012.6
20260905213416 102 176 0.9 1.7 0.00 0.00 0.00 37 1012.4
20260905212912 102 359 0.9 0.9 0.00 0.00 0.00 37 1012.4
20260905212406 103 20 0.9 0.9 0.00 0.00 0.00 37 1012.5
20260905211905 101 356 0.0 0.9 0.00 0.00 0.00 37 1012.7
20260905211401 102 11 0.0 0.0 0.00 0.00 0.00 37 1012.9
20260905210857 103 286 0.9 1.7 0.00 0.00 0.00 38 1012.8
20260905210356 103 318 0.0 0.9 0.00 0.00 0.00 37 1012.7
20260905205856 101 328 0.9 0.9 0.00 0.00 0.00 41 1012.9
20260905205351 102 221 1.7 1.7 0.00 0.00 0.00 38 1012.9
20260905204849 102 323 0.0 0.0 0.00 0.00 0.00 38 1013.1
20260905204346 102 331 0.0 0.9 0.00 0.00 0.00 37 1013.0
20260905203839 102 182 1.7 2.6 0.00 0.00 0.00 37 1013.2
20260905203335 103 294 1.7 2.6 0.00 0.00 0.00 37 1013.3
20260905202830 103 295 2.6 3.5 0.00 0.00 0.00 36 1013.4
20260905202325 102 296 0.9 1.7 0.00 0.00 0.00 38 1013.5
20260905201821 102 248 3.5 3.5 0.00 0.00 0.00 37 1013.5
20260905201317 102 273 2.6 3.5 0.00 0.00 0.00 38 1013.8
20260905200816 102 317 0.9 0.9 0.00 0.00 0.00 38 1013.9
20260905200312 101 146 2.6 3.5 0.00 0.00 0.00 38 1013.8
20260905195810 100 258 0.9 1.7 0.00 0.00 0.00 40 1013.9
20260905195306 100 154 2.6 3.5 0.00 0.00 0.00 40 1014.0
20260905194801 102 290 0.9 1.7 0.00 0.00 0.00 39 1014.1
20260905194255 103 328 5.2 7.0 0.00 0.00 0.00 37 1014.0
20260905193754 102 303 0.9 0.9 0.00 0.00 0.00 40 1014.2